COSMOS 2506 DEB

Satellite information

Favourite Embed

Satellite Type and Status

DEBRISIN ORBIT

Key statistics

Satellite COSMOS 2506 DEB at a glance.

Uptime

3607

Days in orbit

Revolutions

≈ 14.7

Per day

Orbit

SSO

Sun Synchronous Orbit

Inclination

98.2

Latest

Satellite identification and parameters

Extended collection of information and parameters for COSMOS 2506 DEB.

Object identification

Identified? True

Debris? True

Object name: COSMOS 2506 DEB

International designator: 2015-029C

Object number (NORAD): 47212

Object ID (CCSDS): 47212

Country: COMMONWEALTH OF INDEPENDENT STATES (CIS)

Current information (Y/N): Y

RCS size: SMALL

Orbital parameters

Period: 98.062 minutes

Inclination: 98.1558 deg

SMA: 7044.13 km

Apoapsis: 670.558 km

Periapsis: 661.433 km

RAAN: 193.5769 deg

Eccentricy: 0.0006477

Argument of periapsis: 3.8595 deg

Mean anomaly: 356.2658 deg

Mean motion: 14.68458583 rev/day

Mean motion (dot): 0.00006214 rev/day2

B* drag term: 0.0010806 1/REarth

Two-line elements (TLE)

Creation date: May 6, 2025, 3:54 a.m.

Reference frame: TEME

Reference center: EARTH

Epoch: May 4, 2025, 11:52 p.m. UTC

TLE line 0: 0 COSMOS 2506 DEB

TLE line 1: 1 47212U 15029C 25124.99491073 .00006214 00000-0 10806-2 0 9999

TLE line 2: 2 47212 98.1558 193.5769 0006477 3.8595 356.2658 14.68458583237647

Live tracking on map

Real-time ground track for satellite COSMOS 2506 DEB.

In-orbit conjunctions

A list of the most updated potential collisions computed for object COSMOS 2506 DEB.

Target Orbit TCA Probability of collision Miss distance Type
CZ-6A DEB LEO 2025-05-05 09:15:31 0.0001337823 334.0 (m) DEBRIS
PEGASUS DEB LEO 2024-11-13 05:32:20 0.00136162 236.0 (m) DEBRIS

Associated space launch

A military reconnaissance satellite will be launched on Tuesday by a Soyuz-2.1b although Russian Defence Ministry has not yet officially confirmed the information. Source: http://tass.ru/en/non-political/802905

COSMOS 2506 DEB was lifted into orbit during the mission ‘Soyuz | Persona (Kosmos 2506)’, on board a Soyuz 2.1b space rocket.

The launch took place on June 23, 2015, 4:44 p.m. from 43/4 (43R).

For more information about the launch, click the button.

Launch to space Soyuz | Persona (Kosmos 2506)
Soyuz | Persona (Kosmos 2506)

Agency: N/A

Status: Launch Successful

Launch date: June 23, 2015, 4:44 p.m. UTC

Rocket: Soyuz 2.1b

Launch pad: 43/4 (43R)

Location: Plesetsk Cosmodrome, Russian Federation

...

Latest news about this satellite

There are no fresh news available about this satellite. Check back as we update our databases every day.


Newsletter sign-up

Weekly statistics, charts and insights to help you stay on top of the space industry.